Other Public Products
Issued by NWS Charleston, SC

Current Version | Previous Version | Graphics & Text | Print | Product List | Glossary Off
Versions: 1 2 3 4 5 6 7 8 9 10 11 12 13 14 15 16 17 18 19 20 21 22 23 24 25 26 27 28 29 30 31 32 33 34 35 36 37 38 39 40 41 42 43 44 45 46 47 48 49 50

935
FPUS82 KCHS 210527
OPUCHS

TEST...KCHS/KSAV Gateway Observations...TEST
National Weather Service Charleston SC
100 AM EDT SAT OCT 21 2017

NOTE: "fair" indicates few or no clouds below 12,000 feet with no
significant weather and/or obstructions to visibility.

SCZ050-WAZ558-NCZ071-TXZ119-213-PAZ071-DCZ001-FLZ074-172-MI076-
NYZ176-178-MAZ016-IL014-TNZ027-NJZ106-GAZ044-MD014-210600-

...Gateway Observations for Charleston International...

CITY           SKY/WX    TMP DP  RH WIND       PRES   REMARKS
Chas Airport   CLEAR     58  58 100 CALM      30.23F
Seattle        PTCLDY    47  41  80 S12       29.93R
Charlotte      CLEAR     54  51  90 N3        30.26S
Dallas DFW     CLOUDY    74  67  78 S21G29    29.91S
Dallas Love    CLOUDY    73  66  78 S21G35    29.92S
Philladelphia  CLEAR     57  45  64 W5        30.25R
Wash National  CLEAR     59  51  75 S3        30.27R
Baltimore      CLEAR     51  49  92 SW3       30.25S
Miami          CLOUDY    82  74  76 E16G23    30.03F
Detroit        MOCLDY    55  46  71 CALM      30.17R
Newark         CLEAR     59  39  47 CALM      30.22S
Laguardia      CLEAR     65  39  38 N5        30.21R
J F K          CLEAR     62  36  37 NW6       30.23R
Boston Logan   CLEAR     60  35  39 NW7       30.17R
Ft. Lauderdale LGT RAIN  77  74  90 E16G30    30.03F
Chicago O`Hare CLOUDY    67  48  50 S16       30.05S
Chicago Midway CLOUDY    66  49  54 S12       30.06S
Houston Bush   MOCLDY    73  72  96 E7        29.97F
Houston Hobby  PTCLDY    75  71  87 E3        29.96F
Nashville      PTCLDY    55  50  83 S5        30.18S
Atlanta        CLOUDY    59  48  67 CALM      30.22F

$$

GAZ044-118-TXZ119-213-NCZ071-DCZ001-MDZ014-506-PAZ021-071-NJZ106-
NYZ176-178-MAZ106-OHZ011-021-055-MIZ076-KYZ091-ILZ014-INZ047-
MNZ060-ONZ431-210600-

...Gateway Observations for Savannah International...

CITY           SKY/WX    TMP DP  RH WIND       PRES   REMARKS
Savannah Arpt  CLEAR     60  60 100 N3        30.22F
Atlanta        CLOUDY    59  48  67 CALM      30.22F
Charlotte      CLEAR     54  51  90 N3        30.26S
Dallas DFW     CLOUDY    74  67  78 S21G29    29.91S
Houston Bush   MOCLDY    73  72  96 E7        29.97F
Wash National  CLEAR     59  51  75 S3        30.27R
Wash Dulles    CLEAR     48  46  93 CALM      30.27R
Baltimore      CLEAR     51  49  92 SW3       30.25S
Philadelphia   CLEAR     57  45  64 W5        30.25R
Newark         CLEAR     59  39  47 CALM      30.22S
Laguardia      CLEAR     65  39  38 N5        30.21R
J F K          CLEAR     62  36  37 NW6       30.23R
Boston         CLEAR     60  35  39 NW7       30.17R
Pittsburg      CLEAR     49  40  71 CALM      30.26S
Akron          CLEAR     52  40  63 S8        30.23S
Cleveland      CLEAR     53  41  63 S6        30.22S
Cincinnati     MOCLDY    56  54  93 CALM      30.20R
Columbus       CLEAR     51  45  77 CALM      30.21S
Detroit        MOCLDY    55  46  71 CALM      30.17R
Chicago O`Hare CLOUDY    67  48  50 S16       30.05S
Minneapolis    CLOUDY    67  53  61 S15G24    29.74R
Indianapolis   PTCLDY    58  48  69 SE6       30.16R
Toronto Canada CLEAR     54  36  50 W3        30.17S

$$




USA.gov is the U.S. government's official web portal to all federal, state and local government web resources and services.